Time,TemperatureF,DewpointF,PressureIn,WindDirection,WindDirectionDegrees,WindSpeedMPH,WindSpeedGustMPH,Humidity,HourlyPrecipIn,Conditions,Clouds,dailyrainin,SoftwareType,DateUTC
2013-02-01 00:00:00,1.0,-99.9,-100.00,WNW,295,7.0,18.0,-999,0.00,,,0.03,,2013-02-01 06:00:00,
2013-02-01 00:32:00,1.0,-99.9,-100.00,WNW,295,7.0,18.0,-999,0.00,,,0.03,,2013-02-01 06:32:00,
2013-02-01 00:42:00,1.0,-99.9,-100.00,WNW,295,7.0,18.0,-999,0.00,,,0.03,,2013-02-01 06:42:00,
2013-02-01 00:52:00,1.0,-99.9,-100.00,WNW,295,7.0,18.0,-999,0.00,,,0.03,,2013-02-01 06:52:00,
2013-02-01 01:00:00,-1.0,-99.9,-100.00,WNW,299,6.0,19.0,-999,0.00,,,0.03,,2013-02-01 07:00:00,
2013-02-01 01:32:00,-1.0,-99.9,-100.00,WNW,299,6.0,19.0,-999,0.00,,,0.03,,2013-02-01 07:32:00,
2013-02-01 01:42:00,-1.0,-99.9,-100.00,WNW,299,6.0,19.0,-999,0.00,,,0.03,,2013-02-01 07:42:00,
2013-02-01 01:52:00,-1.0,-99.9,-100.00,WNW,299,6.0,19.0,-999,0.00,,,0.03,,2013-02-01 07:52:00,
2013-02-01 02:00:00,-2.0,-99.9,-100.00,WNW,294,6.0,14.0,-999,0.00,,,0.03,,2013-02-01 08:00:00,
2013-02-01 02:42:00,-2.0,-99.9,-100.00,WNW,294,6.0,14.0,-999,0.00,,,0.03,,2013-02-01 08:42:00,
2013-02-01 02:52:00,-2.0,-99.9,-100.00,WNW,294,6.0,14.0,-999,0.00,,,0.03,,2013-02-01 08:52:00,
2013-02-01 03:00:00,-5.0,-99.9,-100.00,West,272,7.0,13.0,-999,0.00,,,0.03,,2013-02-01 09:00:00,
2013-02-01 03:32:00,-5.0,-99.9,-100.00,West,272,7.0,13.0,-999,0.00,,,0.03,,2013-02-01 09:32:00,
2013-02-01 03:42:00,-5.0,-99.9,-100.00,West,272,7.0,13.0,-999,0.00,,,0.03,,2013-02-01 09:42:00,
2013-02-01 03:52:00,-5.0,-99.9,-100.00,West,272,7.0,13.0,-999,0.00,,,0.03,,2013-02-01 09:52:00,
2013-02-01 04:00:00,-4.0,-99.9,-100.00,West,280,7.0,15.0,-999,0.00,,,0.03,,2013-02-01 10:00:00,
2013-02-01 04:43:00,-4.0,-99.9,-100.00,West,280,7.0,15.0,-999,0.00,,,0.03,,2013-02-01 10:43:00,
2013-02-01 04:53:00,-4.0,-99.9,-100.00,West,280,7.0,15.0,-999,0.00,,,0.03,,2013-02-01 10:53:00,
2013-02-01 05:00:00,-4.0,-99.9,-100.00,WNW,287,5.0,14.0,-999,0.00,,,0.03,,2013-02-01 11:00:00,
2013-02-01 05:32:00,-4.0,-99.9,-100.00,WNW,287,5.0,14.0,-999,0.00,,,0.03,,2013-02-01 11:32:00,
2013-02-01 05:42:00,-4.0,-99.9,-100.00,WNW,287,5.0,14.0,-999,0.00,,,0.03,,2013-02-01 11:42:00,
2013-02-01 05:53:00,-4.0,-99.9,-100.00,WNW,287,5.0,14.0,-999,0.00,,,0.03,,2013-02-01 11:53:00,
2013-02-01 06:00:00,-4.0,-99.9,-100.00,WNW,299,5.0,13.0,-999,0.00,,,0.03,,2013-02-01 12:00:00,
2013-02-01 06:32:00,-4.0,-99.9,-100.00,WNW,299,5.0,13.0,-999,0.00,,,0.03,,2013-02-01 12:32:00,
2013-02-01 06:42:00,-4.0,-99.9,-100.00,WNW,299,5.0,13.0,-999,0.00,,,0.03,,2013-02-01 12:42:00,
2013-02-01 06:52:00,-4.0,-99.9,-100.00,WNW,299,5.0,13.0,-999,0.00,,,0.03,,2013-02-01 12:52:00,
2013-02-01 07:00:00,-3.0,-99.9,-100.00,NW,306,5.0,14.0,-999,0.00,,,0.03,,2013-02-01 13:00:00,
2013-02-01 07:43:00,-3.0,-99.9,-100.00,NW,306,5.0,14.0,-999,0.00,,,0.03,,2013-02-01 13:43:00,
2013-02-01 07:53:00,-3.0,-99.9,-100.00,NW,306,5.0,14.0,-999,0.00,,,0.03,,2013-02-01 13:53:00,
2013-02-01 08:00:00,-6.0,-99.9,-100.00,West,275,2.0,7.0,-999,0.00,,,0.03,,2013-02-01 14:00:00,
2013-02-01 08:33:00,-6.0,-99.9,-100.00,West,275,2.0,7.0,-999,0.00,,,0.03,,2013-02-01 14:33:00,
2013-02-01 08:43:00,-6.0,-99.9,-100.00,West,275,2.0,7.0,-999,0.00,,,0.03,,2013-02-01 14:43:00,
2013-02-01 08:53:00,-6.0,-99.9,-100.00,West,275,2.0,7.0,-999,0.00,,,0.03,,2013-02-01 14:53:00,
2013-02-01 09:00:00,-3.0,-99.9,-100.00,West,268,4.0,12.0,-999,0.00,,,0.03,,2013-02-01 15:00:00,
2013-02-01 09:42:00,-3.0,-99.9,-100.00,West,268,4.0,12.0,-999,0.00,,,0.03,,2013-02-01 15:42:00,
2013-02-01 09:52:00,-3.0,-99.9,-100.00,West,268,4.0,12.0,-999,0.00,,,0.03,,2013-02-01 15:52:00,
2013-02-01 10:00:00,-1.0,-99.9,-100.00,West,260,3.0,6.0,-999,0.00,,,0.03,,2013-02-01 16:00:00,
2013-02-01 10:33:00,-1.0,-99.9,-100.00,West,260,3.0,6.0,-999,0.00,,,0.03,,2013-02-01 16:33:00,
2013-02-01 10:43:00,-1.0,-99.9,-100.00,West,260,3.0,6.0,-999,0.00,,,0.03,,2013-02-01 16:43:00,
2013-02-01 10:53:00,-1.0,-99.9,-100.00,West,260,3.0,6.0,-999,0.00,,,0.03,,2013-02-01 16:53:00,
2013-02-01 11:00:00,3.0,-99.9,-100.00,SSW,199,3.0,8.0,-999,0.00,,,0.03,,2013-02-01 17:00:00,
2013-02-01 11:42:00,3.0,-99.9,-100.00,SSW,199,3.0,8.0,-999,0.00,,,0.03,,2013-02-01 17:42:00,
2013-02-01 11:53:00,3.0,-99.9,-100.00,SSW,199,3.0,8.0,-999,0.00,,,0.03,,2013-02-01 17:53:00,
2013-02-01 12:00:00,4.0,-99.9,-100.00,South,188,6.0,12.0,-999,0.00,,,0.03,,2013-02-01 18:00:00,
2013-02-01 12:42:00,4.0,-99.9,-100.00,South,188,6.0,12.0,-999,0.00,,,0.03,,2013-02-01 18:42:00,
2013-02-01 12:53:00,4.0,-99.9,-100.00,South,188,6.0,12.0,-999,0.00,,,0.03,,2013-02-01 18:53:00,
2013-02-01 13:00:00,7.0,-99.9,-100.00,SSW,197,6.0,13.0,-999,0.00,,,0.03,,2013-02-01 19:00:00,
2013-02-01 13:42:00,7.0,-99.9,-100.00,SSW,197,6.0,13.0,-999,0.00,,,0.03,,2013-02-01 19:42:00,
2013-02-01 13:52:00,7.0,-99.9,-100.00,SSW,197,6.0,13.0,-999,0.00,,,0.03,,2013-02-01 19:52:00,
2013-02-01 14:00:00,7.0,-99.9,-100.00,South,177,8.0,16.0,-999,0.00,,,0.00,,2013-02-01 20:00:00,
2013-02-01 14:42:00,7.0,-99.9,-100.00,South,177,8.0,16.0,-999,0.00,,,0.00,,2013-02-01 20:42:00,
2013-02-01 14:52:00,7.0,-99.9,-100.00,South,177,8.0,16.0,-999,0.00,,,0.00,,2013-02-01 20:52:00,
2013-02-01 15:00:00,10.0,-99.9,-100.00,South,176,9.0,19.0,-999,0.00,,,0.00,,2013-02-01 21:00:00,
2013-02-01 15:32:00,10.0,-99.9,-100.00,South,176,9.0,19.0,-999,0.00,,,0.00,,2013-02-01 21:32:00,
2013-02-01 15:42:00,10.0,-99.9,-100.00,South,176,9.0,19.0,-999,0.00,,,0.00,,2013-02-01 21:42:00,
2013-02-01 15:53:00,10.0,-99.9,-100.00,South,176,9.0,19.0,-999,0.00,,,0.00,,2013-02-01 21:53:00,
2013-02-01 16:00:00,12.0,-99.9,-100.00,South,172,8.0,17.0,-999,0.00,,,0.00,,2013-02-01 22:00:00,
2013-02-01 16:42:00,12.0,-99.9,-100.00,South,172,8.0,17.0,-999,0.00,,,0.00,,2013-02-01 22:42:00,
2013-02-01 16:52:00,12.0,-99.9,-100.00,South,172,8.0,17.0,-999,0.00,,,0.00,,2013-02-01 22:52:00,
2013-02-01 17:00:00,13.0,-99.9,-100.00,SSE,168,7.0,13.0,-999,0.00,,,0.00,,2013-02-01 23:00:00,
2013-02-01 17:32:00,13.0,-99.9,-100.00,SSE,168,7.0,13.0,-999,0.00,,,0.00,,2013-02-01 23:32:00,
2013-02-01 17:42:00,13.0,-99.9,-100.00,SSE,168,7.0,13.0,-999,0.00,,,0.00,,2013-02-01 23:42:00,
2013-02-01 17:52:00,13.0,-99.9,-100.00,SSE,168,7.0,13.0,-999,0.00,,,0.00,,2013-02-01 23:52:00,
2013-02-01 18:00:00,15.0,-99.9,-100.00,South,183,7.0,15.0,-999,0.00,,,0.00,,2013-02-02 00:00:00,
2013-02-01 18:32:00,15.0,-99.9,-100.00,South,183,7.0,15.0,-999,0.00,,,0.00,,2013-02-02 00:32:00,
2013-02-01 18:42:00,15.0,-99.9,-100.00,South,183,7.0,15.0,-999,0.00,,,0.00,,2013-02-02 00:42:00,
2013-02-01 18:52:00,15.0,-99.9,-100.00,South,183,7.0,15.0,-999,0.00,,,0.00,,2013-02-02 00:52:00,
2013-02-01 19:00:00,15.0,-99.9,-100.00,South,174,7.0,15.0,-999,0.00,,,0.00,,2013-02-02 01:00:00,
2013-02-01 19:42:00,15.0,-99.9,-100.00,South,174,7.0,15.0,-999,0.00,,,0.00,,2013-02-02 01:42:00,
2013-02-01 19:52:00,15.0,-99.9,-100.00,South,174,7.0,15.0,-999,0.00,,,0.00,,2013-02-02 01:52:00,
2013-02-01 20:00:00,16.0,-99.9,-100.00,SSE,163,6.0,8.0,-999,0.00,,,0.00,,2013-02-02 02:00:00,
2013-02-01 20:42:00,16.0,-99.9,-100.00,SSE,163,6.0,8.0,-999,0.00,,,0.00,,2013-02-02 02:42:00,
2013-02-01 20:52:00,16.0,-99.9,-100.00,SSE,163,6.0,8.0,-999,0.00,,,0.00,,2013-02-02 02:52:00,
2013-02-01 21:00:00,16.0,-99.9,-100.00,South,174,8.0,17.0,-999,0.00,,,0.00,,2013-02-02 03:00:00,
2013-02-01 21:42:00,16.0,-99.9,-100.00,South,174,8.0,17.0,-999,0.00,,,0.00,,2013-02-02 03:42:00,
2013-02-01 21:52:00,16.0,-99.9,-100.00,South,174,8.0,17.0,-999,0.00,,,0.00,,2013-02-02 03:52:00,
2013-02-01 22:00:00,22.0,-99.9,-100.00,SW,222,5.0,12.0,-999,0.00,,,0.00,,2013-02-02 04:00:00,
2013-02-01 22:33:00,22.0,-99.9,-100.00,SW,222,5.0,12.0,-999,0.00,,,0.00,,2013-02-02 04:33:00,
2013-02-01 22:42:00,22.0,-99.9,-100.00,SW,222,5.0,12.0,-999,0.00,,,0.00,,2013-02-02 04:42:00,
2013-02-01 22:52:00,22.0,-99.9,-100.00,SW,222,5.0,12.0,-999,0.00,,,0.00,,2013-02-02 04:52:00,
2013-02-01 23:00:00,24.0,-99.9,-100.00,SW,231,9.0,18.0,-999,0.00,,,0.00,,2013-02-02 05:00:00,
2013-02-01 23:33:00,24.0,-99.9,-100.00,SW,231,9.0,18.0,-999,0.00,,,0.00,,2013-02-02 05:33:00,
2013-02-01 23:42:00,24.0,-99.9,-100.00,SW,231,9.0,18.0,-999,0.00,,,0.00,,2013-02-02 05:42:00,
2013-02-01 23:52:00,24.0,-99.9,-100.00,SW,231,9.0,18.0,-999,0.00,,,0.00,,2013-02-02 05:52:00,